Regional Weather Roundup
Issued by NWS

Home | Current Version | Previous Version | Text Only | Print | Product List | Glossary On
Versions: 1 2 3 4 5 6 7 8 9 10 11 12 13 14 15 16 17 18 19 20 21 22 23 24 25 26 27 28 29 30 31 32 33 34 35 36 37 38 39 40 41 42 43 44 45 46 47 48 49 50
000
ASUS43 KDTX 050101
RWRMI
MICHIGAN HOURLY REGIONAL WEATHER ROUNDUP
NATIONAL WEATHER SERVICE DETROIT/PONTIAC MI
900 PM EDT SAT JUL 04 2015

NOTE: "FAIR" INDICATES FEW OR NO CLOUDS BELOW 12,000 FEET WITH NO
SIGNIFICANT WEATHER AND/OR OBSTRUCTION TO VISIBILITY.

MIZ047>049-052>055-059>063-066>070-074>076-081>083-050200-
SOUTHEAST LOWER MICHIGAN

CITY           SKY/WX    TMP DP  RH WIND       PRES   REMARKS
ADRIAN         CLEAR     72  62  71 CALM      30.01S
ALMA           PTCLDY    74  61  62 SW3       29.99R
ANN ARBOR      CLEAR     67  62  84 CALM      30.00S
BAD AXE        CLOUDY    73  56  55 SW3       29.98S
CARO           PTCLDY    69  60  74 SW3       29.98S
DETROIT CITY   CLEAR     73  55  53 S5        29.99S
DETROIT        MOCLDY    75  56  51 S6        30.00S
FLINT          CLEAR     76  58  53 SW3       30.00R
GROSSE ILE     CLEAR     70  63  78 S6        29.98F
HILLSDALE      CLEAR     71  59  65 CALM      30.02S
HOWELL         CLEAR     73  55  53 CALM      30.00S

CITY           SKY/WX    TMP DP  RH WIND       PRES   REMARKS
JACKSON        CLEAR     70  62  76 SW5       30.01S
LAMBERTVILLE   CLEAR     71  64  76 CALM      30.00S
LANSING        PTCLDY    73  58  59 W5        30.00S
LAPEER         FAIR      68  58  68 CALM      30.00R
MASON          CLEAR     71  55  58 CALM      30.00S
MONROE         CLEAR     70  61  74 CALM      29.99S
MT. CLEMENS    CLEAR     69  55  61 S3        29.97F
PONTIAC        CLOUDY    73  56  54 W3        29.99S
PORT HOPE        N/A     66  59  78 SE7       29.97R
PORT HURON     CLEAR     68  59  73 CALM      29.99S
TRI CITIES     CLOUDY    77  59  53 S7        29.98R
MIDLAND        CLOUDY    77  60  55 S3        29.96S
TROY           CLEAR     77  55  45 CALM      30.01S
SAGINAW HB     PTCLDY    73  55  53 S6        29.98R
$$
MIZ043>046-050>051-056>058-064>065-071>073-077>080-050200-
SOUTHWEST LOWER MICHIGAN

CITY           SKY/WX    TMP DP  RH WIND       PRES   REMARKS
BATTLE CREEK   CLEAR     74  59  59 NW6       30.01S
BENTON HARBOR  CLEAR     67  58  72 CALM      30.00S
BIG RAPIDS     PTCLDY    73  58  59 CALM      29.99S
COLDWATER      CLEAR     70  58  65 CALM      30.01R
FREMONT        FAIR      69  60  73 SW5       30.00R
HOLLAND        PTCLDY    71  58  63 CALM      30.01S
GRAND RAPIDS   MOCLDY    73  59  61 W8        30.00S
IONIA          FAIR      73  61  67 W8        29.99S
KALAMAZOO      CLEAR     72  57  59 NW6       30.01S
LUDINGTON      PTCLDY    66  59  78 CALM      30.00S
MARSHALL       CLEAR     71  59  66 CALM      30.00S
MOUNT PLEASANT MOCLDY    76  61  59 SW5       29.97S
MUSKEGON       MOCLDY    68  58  70 SW3       30.00S
SOUTH HAVEN    CLEAR     68  58  71 CALM      30.00S
$$
MIZ016>042-050200-
NORTHERN LOWER MICHIGAN

CITY           SKY/WX    TMP DP  RH WIND       PRES   REMARKS
ALPENA         CLEAR     68  56  65 CALM      30.00R
BEAVER ISLAND  PTCLDY    64  57  78 CALM      30.00R
BELLAIRE       PTCLDY    68  59  72 CALM      29.99R
CADILLAC       PTCLDY    71  60  68 N3        30.00S
CHARLEVOIX     PTCLDY    66  57  72 CALM      30.02R
FRANKFORT      PTCLDY    67  57  71 W3        30.00R
GAYLORD        PTCLDY    70  57  63 CALM      30.01R
GRAYLING       MOCLDY    70  57  63 CALM      30.01R
HARBOR SPRINGS PTCLDY    62  60  93 CALM      30.00R
HOUGHTON LAKE  MOCLDY    72  56  57 N3        30.00R
MANISTEE       CLEAR     64  57  77 W5        30.00S
OSCODA         CLEAR     65  54  67 E5        29.98S
PELLSTON       PTCLDY    67  59  75 CALM      29.99R
ROGERS CITY    CLEAR     66  60  79 CALM      30.00R
TRAVERSE CITY  MOCLDY    69  60  73 VRB5      29.98R
$$
MIZ007>008-015-050200-
EASTERN UPPER MICHIGAN

CITY           SKY/WX    TMP DP  RH WIND       PRES   REMARKS
KINROSS        PTCLDY    61  55  82 NW6       30.00R
MACKINAC ISLAN PTCLDY    65  58  76 CALM      29.99S
NEWBERRY       MOCLDY    63  56  79 CALM      29.99S
S. S. MARIE    CLEAR     63  54  72 NW7       29.99R
$$
MIZ004>006-011>014-085-050200-
CENTRAL UPPER MICHIGAN

CITY           SKY/WX    TMP DP  RH WIND       PRES   REMARKS
MANISTIQUE     PTCLDY    64  56  76 CALM      29.98S
ESCANABA       PTCLDY    66  61  82 CALM      29.98R
MENOMINEE      PTCLDY    70  57  64 S6        29.97R
SAWYER-GWINN   CLEAR     63  54  72 E6        30.00R
$$
MIZ001>003-009>011-084-050200-
WESTERN UPPER MICHIGAN

CITY           SKY/WX    TMP DP  RH WIND       PRES   REMARKS
IRON MOUNTAIN  MOCLDY    72  62  71 SE6       29.96R
HOUGHTON       PTCLDY    60  52  74 E7        29.97S
COPPER HARBOR    N/A     61  53  75 SW7       29.96S
IRONWOOD       MOCLDY    73  64  73 E5        29.90S
$$

ABBREVIATIONS USED IN REMARKS
   TC - TEMPERATURE IN CELSIUS
  WCI - WIND CHILL INDEX
   HX - HEAT INDEX
  VSB - VISIBILITY




USA.gov is the U.S. government's official web portal to all federal, state and local government web resources and services.